This is the latest recevied weather packets stored in our database for station/object M0XDC. If no packets are shown the sender has not sent any weather packets the latest 10 day(s).
| Time | Temp. | Humidity | Pressure | Rain* | Wind** | Luminosity | Snow |
|---|---|---|---|---|---|---|---|
| 1777286841 | 17.78° C | 49% | 1022.3 hPa | 0 mm | - | - | - |
| 1777285803 | 18.33° C | 49% | 1022.3 hPa | 0 mm | - | - | - |
| 1777284905 | 17.22° C | 51% | 1022.5 hPa | 0 mm | - | - | - |
| 1777279505 | 14.44° C | 57% | 1022.7 hPa | 0 mm | - | - | - |
| 1777270505 | 7.78° C | 85% | 1022.9 hPa | 0 mm | - | - | - |
| 1777270057 | 7.22° C | 87% | 1023 hPa | 0 mm | - | - | - |
| 1777267803 | 6.11° C | 89% | 1022.7 hPa | 0 mm | - | - | - |
| 1777262405 | 5.56° C | 90% | 1022.5 hPa | 0 mm | - | - | - |
| 1777258803 | 6.67° C | 88% | 1022.2 hPa | 0 mm | - | - | - |
| 1777256240 | 6.67° C | 87% | 1022.3 hPa | 0 mm | - | - | - |
| 1777255205 | 7.22° C | 87% | 1022.7 hPa | 0 mm | - | - | - |
| 1777252505 | 7.22° C | 86% | 1022.9 hPa | 0 mm | - | - | - |
| 1777252057 | 7.22° C | 87% | 1022.8 hPa | 0 mm | - | - | - |
| 1777250257 | 6.67° C | 87% | 1023.2 hPa | 0 mm | - | - | - |
| 1777248457 | 7.22° C | 85% | 1023.2 hPa | 0 mm | - | - | - |
| 1777246657 | 7.22° C | 87% | 1023.1 hPa | 0 mm | - | - | - |
| 1777239903 | 7.78° C | 84% | 1022.9 hPa | 0 mm | - | - | - |
| 1777239457 | 8.33° C | 84% | 1022.8 hPa | 0 mm | - | - | - |
| 1777238105 | 8.33° C | 83% | 1022.8 hPa | 0 mm | - | - | - |
| 1777236305 | 8.33° C | 82% | 1023.3 hPa | 0 mm | - | - | - |
| 1777232705 | 8.89° C | 80% | 1022.9 hPa | 0 mm | - | - | - |
| 1777223703 | 12.78° C | 69% | 1022.5 hPa | 0 mm | - | - | - |
| 1777223257 | 13.33° C | 68% | 1022.7 hPa | 0 mm | - | - | - |
| 1777221457 | 13.89° C | 66% | 1022.7 hPa | 0 mm | - | - | - |
| 1777220103 | 14.44° C | 64% | 1022.5 hPa | 0 mm | - | - | - |
* Rain latest hour (hover to see other rain measurements)
** Current wind speed in m/s (hover to see current wind gust speed)